Simultaneous Nadir Overpasses (SNOs) Predictions

Prediction of SNOs between AQUA and NPP Satellite Orbit:

Table of predicted SNOs for the next 14.0 days since TLE Epoch: 8/2/2025
Index Date (AQUA) Time (AQUA) Lat,Lon (AQUA) SZA (AQUA ) Date (NPP) Time (NPP) Lat,Lon (NPP) SZA (NPP ) Distance(km) Time Diff (sec)
1 08/03/2025 03:35:49 -81.27,-119.23 110.71 08/03/2025 03:35:30 -81.28,-119.13 110.71 1.82 19
2 08/03/2025 04:25:06 81.28, 48.71 69.27 08/03/2025 04:26:14 81.27, 48.74 69.22 1.28 68
3 08/05/2025 13:06:38 -81.28, 98.41 110.13 08/05/2025 13:06:25 -81.28, 98.30 110.11 1.93 13
4 08/05/2025 13:55:55 81.29, -93.67 69.85 08/05/2025 13:57:08 81.27, -93.47 69.77 4.60 73
5 08/07/2025 22:37:27 -81.28, -44.21 109.49 08/07/2025 22:37:20 -81.27, -44.29 109.48 1.73 7
6 08/10/2025 08:08:16 -81.27, 172.92 108.80 08/10/2025 08:08:15 -81.27, 173.09 108.82 2.86 1
7 08/12/2025 17:39:04 -81.27, 30.18 108.10 08/12/2025 17:39:11 -81.28, 30.05 108.08 2.35 7
8 08/15/2025 02:20:32 81.28, 80.22 72.56 08/15/2025 02:19:21 81.28, 80.10 72.61 2.16 71



Historial Predications of SNOs between AQUA and NPP
